Regional Weather Roundup
Issued by NWS

Home | Current Version | Previous Version | Text Only | Print | Product List | Glossary Off
Versions: 1 2 3 4 5 6 7 8 9 10 11 12 13 14 15 16 17 18 19 20 21 22 23 24 25 26 27

000
ASUS45 KBOI 281410
RWRID

IDAHO REGIONAL WEATHER ROUNDUP
NATIONAL WEATHER SERVICE BOISE ID
800 AM MDT THU APR 28 2016

NOTE: "FAIR" INDICATES FEW OR NO CLOUDS BELOW 12000 FEET
WITH NO SIGNIFICANT WEATHER AND/OR OBSTRUCTIONS TO VISIBILITY

IDZ012-014-281500-
SOUTHWEST IDAHO


CITY           SKY/WX    TMP DP  RH WIND       PRES   REMARKS
BOISE          FAIR      44  38  79 CALM      29.84R
CALDWELL       FAIR      48  39  71 W12       29.85R
MOUNTAIN HOME  FAIR      44  37  79 NW10      29.83R
$$

IDZ016-017-281500-
SOUTHCENTRAL IDAHO


CITY           SKY/WX    TMP DP  RH WIND       PRES   REMARKS
BURLEY         FAIR      40  32  73 E6        29.81R
JEROME         CLOUDY    41  38  89 CALM      29.83R
TWIN FALLS     CLOUDY    42  38  85 SW3       29.83R
$$

IDZ019>023-281500-
SOUTHEAST IDAHO


CITY           SKY/WX    TMP DP  RH WIND       PRES   REMARKS
IDAHO FALLS    FAIR      38  28  67 N9        29.84R WCI  31
POCATELLO      FAIR      40  30  67 NE13      29.82R WCI  32
REXBURG        FAIR      38  27  64 CALM      29.83S
$$

IDZ006-010-011-018-031-032-281500-
CENTRAL IDAHO MOUNTAINS


CITY           SKY/WX    TMP DP  RH WIND       PRES   REMARKS
MCCALL         FAIR      40  34  79 N6        29.87R
HAILEY         MOSUNNY   37  32  81 W6        29.83R WCI  33
STANLEY          N/A     33  30  88 W3        29.90R
SALMON         CLOUDY    43  28  56 CALM      29.92R
CHALLIS        CLOUDY    42  28  57 N7        29.88R
$$

IDZ002-004-006-007-026-281500-
NORTHERN IDAHO


CITY           SKY/WX    TMP DP  RH WIND       PRES   REMARKS
LEWISTON       CLOUDY    52  40  63 CALM      29.97R
LOWELL           N/A     44  40  85 CALM      30.00R
COEUR D`ALENE  FAIR      43  39  87 NE6       29.98R
MULLAN PASS    FAIR      31  26  82 VRB3      29.97R
$$




USA.gov is the U.S. government's official web portal to all federal, state and local government web resources and services.